Location: Ripley
(48.3812°N, 115.4473°W)
Time: 12:16:54
(UTC+00:00)

AIST 2D - Pass Details

Date: 04 July 2022
Orbit: 433 x 444 km, 97.0° (Epoch: 10 August)

Event Time Altitude Azimuth Distance (km) Brightness Sun altitude
Rises 06:14:56 0° 359° (N) 2,429 ? -15.9°
Reaches altitude 10° 06:17:16 10° 344° (NNW) 1,556 ? -16.0°
Maximum altitude 06:19:50 21° 293° (WNW) 1,040 ? -16.2°
Drops below altitude 10° 06:22:25 10° 242° (WSW) 1,551 ? -16.3°
Enters shadow 06:23:24 - 233° (SW) 1,902 ? -16.4°
